Location: *
(40.7873°S, 98.7174°E)
Time: 00:48:46
(UTC+00:00)

ARIANE 6 FM1 Upper Stage - Pass Details

Date: 17 December 2025
Orbit: 522 x 610 km, 62.0° (Epoch: 20 January)

Event Time Altitude Azimuth Distance (km) Brightness Sun altitude
Rises 18:48:24 0° 214° (SW) 2,908 6.8 -22.7°
Reaches altitude 10° 18:50:45 10° 210° (SSW) 1,991 5.9 -22.6°
Maximum altitude 18:55:13 58° 130° (SE) 715 3.4 -22.2°
Enters shadow 18:58:16 19° 55° (NE) 1,449 4.6 -22.0°
